Location: Niedergestelen
(46.3129°N, 7.7822°E)
Time: 14:43:18
(UTC+00:00)

Cosmos 1869 Rocket - Pass Details

Date: 01 December 2020
Orbit: 603 x 634 km, 82.5° (Epoch: 27 January)

Event Time Altitude Azimuth Distance (km) Brightness Sun altitude
Rises 18:11:11 0° 349° (N) 2,944 7.1 -24.7°
Reaches altitude 10° 18:13:27 10° 348° (NNW) 2,030 6.2 -25.0°
Enters shadow 18:17:55 76° 268° (W) 658 3.7 -25.8°
Exits shadow 18:22:34 - 178° (S) 2,080 6.3 -26.6°
Sets 18:24:35 0° 177° (S) 2,901 7.0 -27.0°
